Time,TemperatureF,DewpointF,PressureIn,WindDirection,WindDirectionDegrees,WindSpeedMPH,WindSpeedGustMPH,Humidity,HourlyPrecipIn,Conditions,Clouds,dailyrainin,SoftwareType,DateUTC
2013-04-19 00:02:00,50.0,46.0,30.29,WNW,290,6.0,-999.0,87,-99.99,,,-99.99,,2013-04-19 07:02:00,
2013-04-19 00:12:00,50.0,46.0,30.27,WNW,300,7.0,-999.0,87,-99.99,,,-99.99,,2013-04-19 07:12:00,
2013-04-19 00:21:00,50.0,46.0,30.27,WNW,300,7.0,-999.0,87,-99.99,,,-99.99,,2013-04-19 07:21:00,
2013-04-19 00:32:00,50.0,46.0,30.27,WNW,300,7.0,-999.0,87,-99.99,,,-99.99,,2013-04-19 07:32:00,
2013-04-19 00:42:00,50.0,46.0,30.27,West,270,3.0,-999.0,87,-99.99,,,-99.99,,2013-04-19 07:42:00,
2013-04-19 00:52:00,50.0,46.0,30.27,West,270,3.0,-999.0,87,-99.99,,,-99.99,,2013-04-19 07:52:00,
2013-04-19 01:12:00,50.0,46.0,30.26,WNW,290,6.0,-999.0,87,-99.99,,,-99.99,,2013-04-19 08:12:00,
2013-04-19 01:21:00,50.0,46.0,30.26,WNW,290,6.0,-999.0,87,-99.99,,,-99.99,,2013-04-19 08:21:00,
2013-04-19 01:32:00,50.0,46.0,30.26,WNW,290,6.0,-999.0,87,-99.99,,,-99.99,,2013-04-19 08:32:00,
2013-04-19 01:52:00,50.0,46.0,30.25,WNW,300,9.0,-999.0,87,-99.99,,,-99.99,,2013-04-19 08:52:00,
2013-04-19 02:11:00,50.0,46.0,30.24,WNW,290,3.0,-999.0,87,-99.99,,,-99.99,,2013-04-19 09:11:00,
2013-04-19 02:21:00,50.0,46.0,30.24,WNW,290,3.0,-999.0,87,-99.99,,,-99.99,,2013-04-19 09:21:00,
2013-04-19 02:32:00,50.0,46.0,30.24,WNW,290,3.0,-999.0,87,-99.99,,,-99.99,,2013-04-19 09:32:00,
2013-04-19 02:42:00,50.0,46.0,30.23,North,0,0.0,-999.0,87,-99.99,,,-99.99,,2013-04-19 09:42:00,
2013-04-19 02:52:00,50.0,46.0,30.23,North,0,0.0,-999.0,87,-99.99,,,-99.99,,2013-04-19 09:52:00,
2013-04-19 03:13:00,50.0,46.0,30.22,North,0,0.0,-999.0,87,-99.99,,,-99.99,,2013-04-19 10:13:00,
2013-04-19 03:23:00,50.0,46.0,30.22,North,0,0.0,-999.0,87,-99.99,,,-99.99,,2013-04-19 10:23:00,
2013-04-19 03:33:00,50.0,46.0,30.22,North,0,0.0,-999.0,87,-99.99,,,-99.99,,2013-04-19 10:33:00,
2013-04-19 03:42:00,48.0,46.0,30.22,North,0,0.0,-999.0,93,-99.99,,,-99.99,,2013-04-19 10:42:00,
2013-04-19 03:52:00,48.0,46.0,30.22,North,0,0.0,-999.0,93,-99.99,,,-99.99,,2013-04-19 10:52:00,
2013-04-19 04:11:00,50.0,46.0,30.20,West,260,3.0,-999.0,87,-99.99,,,-99.99,,2013-04-19 11:11:00,
2013-04-19 04:22:00,50.0,46.0,30.20,West,260,3.0,-999.0,87,-99.99,,,-99.99,,2013-04-19 11:22:00,
2013-04-19 04:32:00,50.0,46.0,30.20,West,260,3.0,-999.0,87,-99.99,,,-99.99,,2013-04-19 11:32:00,
2013-04-19 04:42:00,48.0,46.0,30.19,SW,230,3.0,-999.0,93,-99.99,,,-99.99,,2013-04-19 11:42:00,
2013-04-19 04:52:00,48.0,46.0,30.19,SW,230,3.0,-999.0,93,-99.99,,,-99.99,,2013-04-19 11:52:00,
2013-04-19 05:12:00,50.0,46.0,30.17,West,260,3.0,-999.0,87,-99.99,,,-99.99,,2013-04-19 12:12:00,
2013-04-19 05:22:00,50.0,46.0,30.17,West,260,3.0,-999.0,87,-99.99,,,-99.99,,2013-04-19 12:22:00,
2013-04-19 05:32:00,50.0,46.0,30.17,West,260,3.0,-999.0,87,-99.99,,,-99.99,,2013-04-19 12:32:00,
2013-04-19 05:42:00,48.0,45.0,30.17,North,0,0.0,-999.0,87,-99.99,,,-99.99,,2013-04-19 12:42:00,
2013-04-19 05:52:00,48.0,45.0,30.17,North,0,0.0,-999.0,87,-99.99,,,-99.99,,2013-04-19 12:52:00,
2013-04-19 06:11:00,50.0,46.0,30.15,WNW,290,8.0,-999.0,87,-99.99,,,-99.99,,2013-04-19 13:11:00,
2013-04-19 06:21:00,50.0,46.0,30.15,WNW,290,8.0,-999.0,87,-99.99,,,-99.99,,2013-04-19 13:21:00,
2013-04-19 06:32:00,50.0,46.0,30.15,WNW,290,8.0,-999.0,87,-99.99,,,-99.99,,2013-04-19 13:32:00,
2013-04-19 06:42:00,50.0,46.0,30.13,WNW,290,13.0,20.0,87,-99.99,,,-99.99,,2013-04-19 13:42:00,
2013-04-19 06:52:00,50.0,46.0,30.13,WNW,290,13.0,20.0,87,-99.99,,,-99.99,,2013-04-19 13:52:00,
2013-04-19 07:11:00,50.0,46.0,30.13,WNW,290,12.0,22.0,87,-99.99,,,-99.99,,2013-04-19 14:11:00,
2013-04-19 07:21:00,50.0,46.0,30.13,WNW,290,12.0,22.0,87,-99.99,,,-99.99,,2013-04-19 14:21:00,
2013-04-19 07:32:00,50.0,46.0,30.13,WNW,290,12.0,22.0,87,-99.99,,,-99.99,,2013-04-19 14:32:00,
2013-04-19 07:42:00,50.0,46.0,30.12,WNW,290,13.0,21.0,87,-99.99,,,-99.99,,2013-04-19 14:42:00,
2013-04-19 07:52:00,50.0,46.0,30.12,WNW,290,13.0,21.0,87,-99.99,,,-99.99,,2013-04-19 14:52:00,
2013-04-19 08:12:00,50.0,46.0,30.13,WNW,290,7.0,-999.0,87,-99.99,,,-99.99,,2013-04-19 15:12:00,
2013-04-19 08:21:00,50.0,46.0,30.13,WNW,290,7.0,-999.0,87,-99.99,,,-99.99,,2013-04-19 15:21:00,
2013-04-19 08:33:00,50.0,46.0,30.13,WNW,290,7.0,-999.0,87,-99.99,,,-99.99,,2013-04-19 15:33:00,
2013-04-19 08:43:00,50.0,46.0,30.13,WNW,290,10.0,16.0,87,-99.99,,,-99.99,,2013-04-19 15:43:00,
2013-04-19 08:52:00,50.0,46.0,30.13,WNW,290,10.0,16.0,87,-99.99,,,-99.99,,2013-04-19 15:52:00,
2013-04-19 09:12:00,50.0,46.0,30.13,WNW,290,9.0,-999.0,87,-99.99,,,-99.99,,2013-04-19 16:12:00,
2013-04-19 09:23:00,50.0,46.0,30.13,WNW,290,9.0,-999.0,87,-99.99,,,-99.99,,2013-04-19 16:23:00,
2013-04-19 09:32:00,50.0,46.0,30.13,WNW,290,9.0,-999.0,87,-99.99,,,-99.99,,2013-04-19 16:32:00,
2013-04-19 09:42:00,50.0,46.0,30.12,WNW,290,8.0,-999.0,87,0.01,,,-99.99,,2013-04-19 16:42:00,
2013-04-19 09:52:00,50.0,46.0,30.12,WNW,290,8.0,-999.0,87,0.01,,,-99.99,,2013-04-19 16:52:00,
2013-04-19 10:12:00,52.0,48.0,30.11,WNW,290,9.0,-999.0,87,-99.99,,,-99.99,,2013-04-19 17:12:00,
2013-04-19 10:21:00,52.0,48.0,30.11,WNW,290,9.0,-999.0,87,-99.99,,,-99.99,,2013-04-19 17:21:00,
2013-04-19 10:32:00,52.0,48.0,30.11,WNW,290,9.0,-999.0,87,-99.99,,,-99.99,,2013-04-19 17:32:00,
2013-04-19 10:42:00,55.0,48.0,30.10,West,280,8.0,16.0,76,-99.99,,,-99.99,,2013-04-19 17:42:00,
2013-04-19 10:52:00,55.0,48.0,30.10,West,280,8.0,16.0,76,-99.99,,,-99.99,,2013-04-19 17:52:00,
2013-04-19 11:13:00,54.0,48.0,30.10,WNW,290,12.0,17.0,81,-99.99,,,-99.99,,2013-04-19 18:13:00,
2013-04-19 11:22:00,54.0,48.0,30.10,WNW,290,12.0,17.0,81,-99.99,,,-99.99,,2013-04-19 18:22:00,
2013-04-19 11:33:00,54.0,48.0,30.10,WNW,290,12.0,17.0,81,-99.99,,,-99.99,,2013-04-19 18:33:00,
2013-04-19 11:42:00,54.0,48.0,30.10,WNW,300,9.0,18.0,81,-99.99,,,-99.99,,2013-04-19 18:42:00,
2013-04-19 11:52:00,54.0,48.0,30.10,WNW,300,9.0,18.0,81,-99.99,,,-99.99,,2013-04-19 18:52:00,
2013-04-19 12:11:00,54.0,48.0,30.10,WNW,300,13.0,23.0,81,-99.99,,,-99.99,,2013-04-19 19:11:00,
2013-04-19 12:21:00,54.0,48.0,30.10,WNW,300,13.0,23.0,81,-99.99,,,-99.99,,2013-04-19 19:21:00,
2013-04-19 12:32:00,54.0,48.0,30.10,WNW,300,13.0,23.0,81,-99.99,,,-99.99,,2013-04-19 19:32:00,
2013-04-19 12:41:00,54.0,48.0,30.10,WNW,290,10.0,17.0,81,-99.99,,,-99.99,,2013-04-19 19:41:00,
2013-04-19 12:52:00,54.0,48.0,30.10,WNW,290,10.0,17.0,81,-99.99,,,-99.99,,2013-04-19 19:52:00,
2013-04-19 13:11:00,54.0,48.0,30.10,WNW,300,10.0,17.0,81,-99.99,,,-99.99,,2013-04-19 20:11:00,
2013-04-19 13:22:00,54.0,48.0,30.10,WNW,300,10.0,17.0,81,-99.99,,,-99.99,,2013-04-19 20:22:00,
2013-04-19 13:32:00,54.0,48.0,30.10,WNW,300,10.0,17.0,81,-99.99,,,-99.99,,2013-04-19 20:32:00,
2013-04-19 13:41:00,54.0,48.0,30.11,WNW,300,10.0,20.0,81,-99.99,,,-99.99,,2013-04-19 20:41:00,
2013-04-19 13:51:00,54.0,48.0,30.11,WNW,300,10.0,20.0,81,-99.99,,,-99.99,,2013-04-19 20:51:00,
2013-04-19 14:11:00,55.0,48.0,30.11,WNW,290,6.0,-999.0,76,-99.99,,,-99.99,,2013-04-19 21:11:00,
2013-04-19 14:21:00,55.0,48.0,30.11,WNW,290,6.0,-999.0,76,-99.99,,,-99.99,,2013-04-19 21:21:00,
2013-04-19 14:32:00,55.0,48.0,30.11,WNW,290,6.0,-999.0,76,-99.99,,,-99.99,,2013-04-19 21:32:00,
2013-04-19 14:42:00,55.0,48.0,30.10,WNW,290,3.0,-999.0,76,-99.99,,,-99.99,,2013-04-19 21:42:00,
2013-04-19 14:52:00,55.0,48.0,30.10,WNW,290,3.0,-999.0,76,-99.99,,,-99.99,,2013-04-19 21:52:00,
2013-04-19 15:12:00,57.0,48.0,30.10,WNW,300,13.0,17.0,71,-99.99,,,-99.99,,2013-04-19 22:12:00,
2013-04-19 15:22:00,57.0,48.0,30.10,WNW,300,13.0,17.0,71,-99.99,,,-99.99,,2013-04-19 22:22:00,
2013-04-19 15:33:00,57.0,48.0,30.10,WNW,300,13.0,17.0,71,-99.99,,,-99.99,,2013-04-19 22:33:00,
2013-04-19 15:42:00,57.0,46.0,30.11,West,280,12.0,25.0,67,-99.99,,,-99.99,,2013-04-19 22:42:00,
2013-04-19 15:52:00,57.0,46.0,30.11,West,280,12.0,25.0,67,-99.99,,,-99.99,,2013-04-19 22:52:00,
2013-04-19 16:02:00,57.0,46.0,30.11,West,280,12.0,25.0,67,-99.99,,,-99.99,,2013-04-19 23:02:00,
2013-04-19 16:11:00,59.0,46.0,30.11,WNW,290,10.0,21.0,62,-99.99,,,-99.99,,2013-04-19 23:11:00,
2013-04-19 16:22:00,59.0,46.0,30.11,WNW,290,10.0,21.0,62,-99.99,,,-99.99,,2013-04-19 23:22:00,
2013-04-19 16:32:00,59.0,46.0,30.11,WNW,290,10.0,21.0,62,-99.99,,,-99.99,,2013-04-19 23:32:00,
2013-04-19 16:42:00,61.0,46.0,30.12,WNW,300,15.0,21.0,59,-99.99,,,-99.99,,2013-04-19 23:42:00,
2013-04-19 16:52:00,61.0,46.0,30.12,WNW,300,15.0,21.0,59,-99.99,,,-99.99,,2013-04-19 23:52:00,
2013-04-19 17:12:00,57.0,45.0,30.13,WNW,290,14.0,22.0,62,-99.99,,,-99.99,,2013-04-20 00:12:00,
2013-04-19 17:21:00,57.0,45.0,30.13,WNW,290,14.0,22.0,62,-99.99,,,-99.99,,2013-04-20 00:21:00,
2013-04-19 17:32:00,57.0,45.0,30.13,WNW,290,14.0,22.0,62,-99.99,,,-99.99,,2013-04-20 00:32:00,
2013-04-19 17:41:00,57.0,46.0,30.12,NW,310,17.0,24.0,67,-99.99,,,-99.99,,2013-04-20 00:41:00,
2013-04-19 17:51:00,57.0,46.0,30.12,NW,310,17.0,24.0,67,-99.99,,,-99.99,,2013-04-20 00:51:00,
2013-04-19 18:11:00,57.0,45.0,30.14,WNW,300,9.0,21.0,62,-99.99,,,-99.99,,2013-04-20 01:11:00,
2013-04-19 18:21:00,57.0,45.0,30.14,WNW,300,9.0,21.0,62,-99.99,,,-99.99,,2013-04-20 01:21:00,
2013-04-19 18:32:00,57.0,45.0,30.14,WNW,300,9.0,21.0,62,-99.99,,,-99.99,,2013-04-20 01:32:00,
2013-04-19 18:42:00,57.0,43.0,30.15,West,280,10.0,18.0,58,-99.99,,,-99.99,,2013-04-20 01:42:00,
2013-04-19 18:52:00,57.0,43.0,30.15,West,280,10.0,18.0,58,-99.99,,,-99.99,,2013-04-20 01:52:00,
2013-04-19 19:11:00,55.0,45.0,30.16,WNW,290,10.0,20.0,66,-99.99,,,-99.99,,2013-04-20 02:11:00,
2013-04-19 19:21:00,55.0,45.0,30.16,WNW,290,10.0,20.0,66,-99.99,,,-99.99,,2013-04-20 02:21:00,
2013-04-19 19:32:00,55.0,45.0,30.16,WNW,290,10.0,20.0,66,-99.99,,,-99.99,,2013-04-20 02:32:00,
2013-04-19 19:42:00,54.0,43.0,30.16,WNW,300,10.0,20.0,66,-99.99,,,-99.99,,2013-04-20 02:42:00,
2013-04-19 19:52:00,54.0,43.0,30.16,WNW,300,10.0,20.0,66,-99.99,,,-99.99,,2013-04-20 02:52:00,
2013-04-19 20:43:00,52.0,45.0,30.17,WNW,290,10.0,16.0,76,-99.99,,,-99.99,,2013-04-20 03:43:00,
2013-04-19 20:52:00,52.0,45.0,30.17,WNW,290,10.0,16.0,76,-99.99,,,-99.99,,2013-04-20 03:52:00,
2013-04-19 21:12:00,52.0,45.0,30.19,West,270,5.0,-999.0,76,-99.99,,,-99.99,,2013-04-20 04:12:00,
2013-04-19 21:23:00,52.0,45.0,30.19,West,270,5.0,-999.0,76,-99.99,,,-99.99,,2013-04-20 04:23:00,
2013-04-19 21:32:00,52.0,45.0,30.19,West,270,5.0,-999.0,76,-99.99,,,-99.99,,2013-04-20 04:32:00,
2013-04-19 21:42:00,52.0,45.0,30.19,WNW,290,7.0,-999.0,76,-99.99,,,-99.99,,2013-04-20 04:42:00,
2013-04-19 21:52:00,52.0,45.0,30.19,WNW,290,7.0,-999.0,76,-99.99,,,-99.99,,2013-04-20 04:52:00,
2013-04-19 22:12:00,52.0,43.0,30.20,NW,310,8.0,-999.0,71,-99.99,,,-99.99,,2013-04-20 05:12:00,
2013-04-19 22:21:00,52.0,43.0,30.20,NW,310,8.0,-999.0,71,-99.99,,,-99.99,,2013-04-20 05:21:00,
2013-04-19 22:32:00,52.0,43.0,30.20,NW,310,8.0,-999.0,71,-99.99,,,-99.99,,2013-04-20 05:32:00,
2013-04-19 22:42:00,52.0,45.0,30.20,WNW,300,8.0,-999.0,76,-99.99,,,-99.99,,2013-04-20 05:42:00,
2013-04-19 22:51:00,52.0,45.0,30.20,WNW,300,8.0,-999.0,76,-99.99,,,-99.99,,2013-04-20 05:51:00,
2013-04-19 23:12:00,50.0,45.0,30.21,WNW,300,8.0,-999.0,81,-99.99,,,-99.99,,2013-04-20 06:12:00,
2013-04-19 23:21:00,50.0,45.0,30.21,WNW,300,8.0,-999.0,81,-99.99,,,-99.99,,2013-04-20 06:21:00,
2013-04-19 23:31:00,50.0,45.0,30.21,WNW,300,8.0,-999.0,81,-99.99,,,-99.99,,2013-04-20 06:31:00,
2013-04-19 23:42:00,50.0,45.0,30.21,NW,310,8.0,-999.0,81,-99.99,,,-99.99,,2013-04-20 06:42:00,
2013-04-19 23:52:00,50.0,45.0,30.21,NW,310,8.0,-999.0,81,-99.99,,,-99.99,,2013-04-20 06:52:00,